FDX6353 TIST-TJSJ

Flight info

Callsign FDX6353
Flight time 0h 18m
Altitude 11000
Route PALCO CHAKA SJU
Aircraft AT76/M-SDE1E2E3FGHIJ2J3J4J5M1RWXYZ/LB1D1

Departure

Time 2026-04-20 04:06
Airport Cyril E. King Airport (TIST)

Arrival

Time 2026-04-20 04:24
Airport Luis Munoz Marin International Airport (TJSJ)
Time Latitude Longitude Altitude Speed Heading
2026-04-20 03:45 18.33573 -64.97163 -33 ft 0 kts 170°
2026-04-20 03:56 18.33574 -64.97163 -33 ft 1 kts 170°
2026-04-20 03:57 18.33591 -64.97167 14 ft 3 kts 162°
2026-04-20 03:57 18.33609 -64.97174 14 ft 3 kts 151°
2026-04-20 03:57 18.33626 -64.97186 14 ft 3 kts 139°
2026-04-20 03:57 18.33640 -64.97201 14 ft 3 kts 124°
2026-04-20 03:58 18.33650 -64.97219 15 ft 3 kts 103°
2026-04-20 03:58 18.33652 -64.97233 15 ft 1 kts 86°
2026-04-20 03:58 18.33652 -64.97234 15 ft 0 kts 86°
2026-04-20 04:00 18.33652 -64.97232 15 ft 1 kts 86°
2026-04-20 04:00 18.33652 -64.97223 15 ft 1 kts 86°
2026-04-20 04:00 18.33653 -64.97219 15 ft 0 kts 86°
2026-04-20 04:01 18.33653 -64.97209 15 ft 3 kts 90°
2026-04-20 04:01 18.33653 -64.97174 14 ft 6 kts 90°
2026-04-20 04:01 18.33654 -64.97144 14 ft 3 kts 88°
2026-04-20 04:01 18.33654 -64.97130 14 ft 1 kts 88°
2026-04-20 04:02 18.33654 -64.97128 14 ft 0 kts 88°
2026-04-20 04:02 18.33655 -64.97123 14 ft 3 kts 87°
2026-04-20 04:02 18.33657 -64.97077 13 ft 9 kts 87°
2026-04-20 04:02 18.33661 -64.97001 13 ft 12 kts 87°
2026-04-20 04:03 18.33665 -64.96906 12 ft 14 kts 87°
2026-04-20 04:03 18.33671 -64.96795 10 ft 16 kts 86°
2026-04-20 04:03 18.33677 -64.96675 10 ft 17 kts 88°
2026-04-20 04:03 18.33681 -64.96551 9 ft 18 kts 88°
2026-04-20 04:04 18.33686 -64.96419 8 ft 18 kts 87°
2026-04-20 04:04 18.33690 -64.96355 7 ft 8 kts 76°
2026-04-20 04:04 18.33753 -64.96338 6 ft 13 kts 358°
2026-04-20 04:04 18.33773 -64.96348 6 ft 0 kts 266°
2026-04-20 04:05 18.33773 -64.96350 6 ft 5 kts 266°
2026-04-20 04:05 18.33762 -64.96582 8 ft 60 kts 268°
2026-04-20 04:05 18.33735 -64.97245 16 ft 120 kts 268°
2026-04-20 04:06 18.33697 -64.98280 214 ft 148 kts 266°
2026-04-20 04:06 18.33594 -64.99390 642 ft 167 kts 262°
2026-04-20 04:06 18.33286 -65.00661 999 ft 184 kts 253°
2026-04-20 04:06 18.32954 -65.01962 1700 ft 186 kts 254°
2026-04-20 04:07 18.32662 -65.03296 2349 ft 186 kts 258°
2026-04-20 04:07 18.32435 -65.04643 2980 ft 188 kts 259°
2026-04-20 04:07 18.32217 -65.05999 3520 ft 192 kts 259°
2026-04-20 04:07 18.31992 -65.07393 3941 ft 193 kts 259°
2026-04-20 04:08 18.31760 -65.08785 4375 ft 194 kts 259°
2026-04-20 04:08 18.31525 -65.10189 4787 ft 196 kts 259°
2026-04-20 04:08 18.31290 -65.11603 5215 ft 196 kts 258°
2026-04-20 04:08 18.31047 -65.13008 5621 ft 196 kts 258°
2026-04-20 04:09 18.30799 -65.14414 6041 ft 194 kts 258°
2026-04-20 04:09 18.30551 -65.15830 6410 ft 197 kts 259°
2026-04-20 04:09 18.30306 -65.17247 6837 ft 194 kts 259°
2026-04-20 04:09 18.30061 -65.18645 7216 ft 194 kts 259°
2026-04-20 04:10 18.29811 -65.20058 7543 ft 197 kts 259°
2026-04-20 04:10 18.29566 -65.21472 7899 ft 202 kts 260°
2026-04-20 04:10 18.29304 -65.22978 7941 ft 221 kts 260°
2026-04-20 04:10 18.29242 -65.24622 7954 ft 232 kts 281°
2026-04-20 04:11 18.29602 -65.26322 7968 ft 245 kts 287°
2026-04-20 04:11 18.30057 -65.28083 7966 ft 254 kts 287°
2026-04-20 04:11 18.30505 -65.29910 7968 ft 262 kts 285°
2026-04-20 04:11 18.30921 -65.31801 7955 ft 268 kts 284°
2026-04-20 04:12 18.31312 -65.33731 7964 ft 271 kts 283°
2026-04-20 04:12 18.31713 -65.35687 7965 ft 275 kts 284°
2026-04-20 04:12 18.32122 -65.37664 7976 ft 277 kts 283°
2026-04-20 04:12 18.32527 -65.39650 7975 ft 278 kts 283°
2026-04-20 04:13 18.32936 -65.41643 7972 ft 279 kts 283°
2026-04-20 04:13 18.33342 -65.43638 7969 ft 280 kts 283°
2026-04-20 04:13 18.33747 -65.45647 7967 ft 280 kts 283°
2026-04-20 04:13 18.34149 -65.47660 7970 ft 281 kts 283°
2026-04-20 04:14 18.34561 -65.49667 7981 ft 281 kts 283°
2026-04-20 04:14 18.34975 -65.51677 7977 ft 281 kts 283°
2026-04-20 04:14 18.35388 -65.53683 7974 ft 281 kts 283°
2026-04-20 04:14 18.35799 -65.55695 7811 ft 288 kts 283°
2026-04-20 04:15 18.36231 -65.57785 7641 ft 287 kts 283°
2026-04-20 04:15 18.36646 -65.59801 7477 ft 283 kts 283°
2026-04-20 04:15 18.37060 -65.61814 7300 ft 280 kts 283°
2026-04-20 04:15 18.37471 -65.63810 7132 ft 277 kts 283°
2026-04-20 04:16 18.37875 -65.65789 6966 ft 276 kts 283°
2026-04-20 04:16 18.38277 -65.67768 6810 ft 276 kts 283°
2026-04-20 04:16 18.38680 -65.69744 6638 ft 275 kts 283°
2026-04-20 04:16 18.39093 -65.71714 6337 ft 277 kts 284°
2026-04-20 04:17 18.39504 -65.73707 5965 ft 281 kts 282°
2026-04-20 04:17 18.39903 -65.75739 5615 ft 285 kts 282°
2026-04-20 04:17 18.40304 -65.77788 5253 ft 287 kts 282°
2026-04-20 04:17 18.40715 -65.79837 4892 ft 282 kts 282°
2026-04-20 04:18 18.41118 -65.81814 4514 ft 271 kts 283°
2026-04-20 04:18 18.41503 -65.83699 4151 ft 263 kts 282°
2026-04-20 04:18 18.41891 -65.85557 3775 ft 257 kts 283°
2026-04-20 04:18 18.42273 -65.87376 3410 ft 252 kts 282°
2026-04-20 04:19 18.42648 -65.89167 3048 ft 249 kts 283°
2026-04-20 04:19 18.43004 -65.90934 2683 ft 245 kts 283°
2026-04-20 04:19 18.43349 -65.92643 2306 ft 229 kts 282°
2026-04-20 04:19 18.43676 -65.94227 1949 ft 214 kts 282°
2026-04-20 04:20 18.43977 -65.95725 1708 ft 206 kts 282°
2026-04-20 04:20 18.44266 -65.97153 1603 ft 193 kts 282°
2026-04-20 04:20 18.44536 -65.98478 1545 ft 181 kts 282°
2026-04-20 04:20 18.44696 -65.99726 1516 ft 170 kts 269°
2026-04-20 04:21 18.44638 -66.00956 1503 ft 161 kts 268°
2026-04-20 04:21 18.44803 -66.02090 1571 ft 154 kts 288°
2026-04-20 04:21 18.45111 -66.03126 1695 ft 145 kts 288°
2026-04-20 04:21 18.45372 -66.04154 1724 ft 145 kts 284°
2026-04-20 04:22 18.45559 -66.05230 1670 ft 148 kts 274°
2026-04-20 04:22 18.45311 -66.06184 1664 ft 133 kts 233°
2026-04-20 04:22 18.44600 -66.06766 1429 ft 130 kts 192°
2026-04-20 04:22 18.43740 -66.06616 1107 ft 128 kts 136°
2026-04-20 04:23 18.43428 -66.05806 997 ft 116 kts 96°
2026-04-20 04:23 18.43370 -66.04959 852 ft 117 kts 92°
2026-04-20 04:23 18.43377 -66.04100 697 ft 118 kts 91°
2026-04-20 04:23 18.43365 -66.03228 499 ft 119 kts 90°
2026-04-20 04:24 18.43360 -66.02371 303 ft 119 kts 91°
2026-04-20 04:24 18.43359 -66.01503 102 ft 119 kts 90°
2026-04-20 04:24 18.43359 -66.00659 14 ft 110 kts 89°
2026-04-20 04:24 18.43357 -66.00254 14 ft 17 kts 90°
2026-04-20 04:25 18.43356 -66.00232 14 ft 4 kts 91°
2026-04-20 04:25 18.43357 -66.00263 14 ft 3 kts 91°
2026-04-20 04:25 18.43385 -66.00219 14 ft 12 kts 22°
2026-04-20 04:25 18.43456 -66.00141 15 ft 18 kts 71°
2026-04-20 04:26 18.43466 -65.99992 16 ft 22 kts 89°
2026-04-20 04:26 18.43464 -65.99817 15 ft 26 kts 91°
2026-04-20 04:26 18.43462 -65.99622 15 ft 26 kts 91°
2026-04-20 04:26 18.43517 -65.99548 15 ft 16 kts
2026-04-20 04:27 18.43643 -65.99518 16 ft 21 kts
2026-04-20 04:27 18.43705 -65.99514 16 ft 10 kts 12°
2026-04-20 04:27 18.43711 -65.99458 15 ft 4 kts 101°
2026-04-20 04:27 18.43712 -65.99440 15 ft 0 kts 89°